MSC Vega — D5BE4 — position and weather

sailwx.info

Track history (hours):
 
Tides and Currents Weather Stations Pressure Air Temp Water Temp Dewpoint Dewpoint Depression Visibility Wind Speed Wind Dir Waves Ship Positions

MSC Vega

Last reported at 2014-Oct-28 12:00 UTC. Time now 2014-Nov-01 11:49 UTC.
Position N 06°12' E 093°00'.

Length 366 m; draft 14.5 m.

Type: Ship (hazmat cat A). MMSI: 636015506.

Wind from 220 at 10 knots

Barometer 1010.0 mb
Air temperature 29.4 ° C
Visibility: greater than 2.2 NM
Dewpoint 26.2 ° C
Water temperature 30.0 ° C

Date/timePositionNaut miles runAvg speedWind from/ knotsBaromVisibWave heightAir tempDewpointWater temp
2014-Oct-28 12:00N 06°12' E 093°00'70419.1 220 / 101010.0 2.2 29.426.230.0
2014-Oct-26 23:05N 01°12' E 103°38'5 8.6
2014-Oct-26 22:31N 01°14' E 103°42'4 1.3
2014-Oct-26 19:28N 01°16' E 103°46'0 0.0
2014-Oct-26 18:13N 01°16' E 103°46'0 0.0
2014-Oct-26 17:25N 01°16' E 103°46'0 0.0
2014-Oct-26 16:04N 01°16' E 103°46'0 0.0
2014-Oct-26 15:31N 01°16' E 103°46'0 0.0
2014-Oct-26 14:28N 01°16' E 103°46'0 0.0
2014-Oct-26 12:25N 01°16' E 103°46'0 0.0
2014-Oct-26 11:28N 01°16' E 103°46'0 0.0
2014-Oct-26 10:28N 01°16' E 103°46'0 0.0
2014-Oct-26 09:28N 01°16' E 103°46'0 0.0
2014-Oct-26 07:22N 01°16' E 103°46'0 0.0
2014-Oct-26 06:31N 01°16' E 103°46'0 0.0
2014-Oct-26 04:04N 01°16' E 103°46'0 0.0
2014-Oct-26 02:31N 01°16' E 103°46'0 0.0
2014-Oct-26 01:22N 01°16' E 103°46'0 0.0
2014-Oct-25 23:28N 01°16' E 103°46'0 0.0
2014-Oct-25 22:28N 01°16' E 103°46'0 0.0
2014-Oct-25 21:31N 01°16' E 103°46'0 0.0
2014-Oct-25 20:28N 01°16' E 103°46'0 0.0
2014-Oct-25 19:31N 01°16' E 103°46'0 0.0
2014-Oct-25 18:22N 01°16' E 103°46'0 0.0
2014-Oct-25 17:22N 01°16' E 103°46'0 0.0
2014-Oct-25 16:28N 01°16' E 103°46'0 0.0
2014-Oct-25 14:31N 01°16' E 103°46'0 0.0
2014-Oct-25 13:16N 01°16' E 103°46'0 0.0
2014-Oct-25 12:28N 01°16' E 103°46'0 0.0
2014-Oct-25 11:22N 01°16' E 103°46'0 0.0
2014-Oct-25 10:22N 01°16' E 103°46'0 0.0
2014-Oct-25 09:16N 01°16' E 103°46'0 0.0
2014-Oct-25 08:31N 01°16' E 103°46'0 0.1
2014-Oct-25 07:22N 01°16' E 103°46'0 0.1
2014-Oct-25 06:19N 01°16' E 103°46'0 0.0
2014-Oct-25 05:28N 01°16' E 103°46'0 0.0
2014-Oct-25 04:31N 01°16' E 103°46'0 0.0
2014-Oct-25 03:22N 01°16' E 103°46'0 0.0
2014-Oct-25 02:28N 01°16' E 103°46'0 0.0
2014-Oct-25 01:28N 01°16' E 103°46'0 0.0
2014-Oct-25 00:28N 01°16' E 103°46'0 0.0
2014-Oct-24 23:28N 01°16' E 103°46'0 0.0
2014-Oct-24 22:22N 01°16' E 103°46'0 0.0
2014-Oct-24 21:28N 01°16' E 103°46'0 0.0
2014-Oct-24 20:31N 01°16' E 103°46'0 0.0
2014-Oct-24 19:25N 01°16' E 103°46'1 1.6
2014-Oct-24 18:33N 01°15' E 103°46'8 7.6
2014-Oct-24 17:33N 01°14' E 103°54'1110.9
2014-Oct-24 16:33N 01°16' E 104°04'  
2014-Oct-21 09:23N 22°18' E 114°06'810.1
2014-Oct-21 08:33N 22°21' E 113°57'7 7.4
2014-Oct-21 07:33N 22°27' E 113°53'0 0.5
2014-Oct-21 06:30N 22°28' E 113°53'0 0.0
2014-Oct-21 05:30N 22°28' E 113°53'0 0.0
2014-Oct-21 04:30N 22°28' E 113°53'0 0.0
2014-Oct-21 03:34N 22°28' E 113°53'0 0.0
2014-Oct-21 02:33N 22°28' E 113°53'0 0.0
2014-Oct-21 01:33N 22°28' E 113°53'0 0.0
2014-Oct-21 00:34N 22°28' E 113°53'0 0.0
2014-Oct-20 23:33N 22°28' E 113°53'0 0.0
2014-Oct-20 22:33N 22°28' E 113°53'0 0.0
2014-Oct-20 21:33N 22°28' E 113°53'0 0.0
2014-Oct-20 20:33N 22°28' E 113°53'0 0.0
2014-Oct-20 19:34N 22°28' E 113°53'0 0.0
2014-Oct-20 18:33N 22°28' E 113°53'0 0.0
2014-Oct-20 17:33N 22°28' E 113°53'0 0.0
2014-Oct-20 16:27N 22°28' E 113°53'0 0.0
2014-Oct-20 15:30N 22°28' E 113°53'0 0.0
2014-Oct-20 14:33N 22°28' E 113°53'0 0.0
2014-Oct-20 13:33N 22°28' E 113°53'0 0.2
2014-Oct-20 12:33N 22°27' E 113°53'6 5.9
2014-Oct-20 11:33N 22°22' E 113°55'24 9.9
2014-Oct-20 09:07N 22°09' E 114°17'8 8.8
2014-Oct-20 08:10N 22°11' E 114°26'54 2.4
2014-Oct-19 09:23N 22°16' E 115°24'1719.7
2014-Oct-19 08:33N 22°16' E 115°42'2019.9
2014-Oct-19 07:31N 22°16' E 116°04'6118.7
2014-Oct-19 04:16N 22°51' E 116°58'1217.0
2014-Oct-19 03:33N 22°59' E 117°08'4017.8
2014-Oct-19 01:20N 23°25' E 117°41'1417.9
2014-Oct-19 00:32N 23°34' E 117°52'1817.8
2014-Oct-18 23:33N 23°47' E 118°06'1918.5
2014-Oct-18 22:33N 24°02' E 118°18'1515.0
2014-Oct-18 21:33N 24°16' E 118°14'1313.0
2014-Oct-18 20:33N 24°26' E 118°04'3 2.6
2014-Oct-18 19:32N 24°27' E 118°01'0 0.0
2014-Oct-18 18:14N 24°27' E 118°01'0 0.0
2014-Oct-18 17:14N 24°27' E 118°01'0 0.0
2014-Oct-18 16:32N 24°27' E 118°01'0 0.0
2014-Oct-18 15:20N 24°27' E 118°01'  
Track history (hours):
 
Tides and Currents Weather Stations Pressure Air Temp Water Temp Dewpoint Dewpoint Depression Visibility Wind Speed Wind Dir Waves Ship Positions

MSC Vega

Last reported at 2014-Oct-28 12:00 UTC. Time now 2014-Nov-01 11:49 UTC.
Position N 06°12' E 093°00'.

Length 366 m; draft 14.5 m.

Type: Ship (hazmat cat A). MMSI: 636015506.

Wind from 220 at 10 knots

Barometer 1010.0 mb
Air temperature 29.4 ° C
Visibility: greater than 2.2 NM
Dewpoint 26.2 ° C
Water temperature 30.0 ° C

Date/timePositionNaut miles runAvg speedWind from/ knotsBaromVisibWave heightAir tempDewpointWater temp
2014-Oct-28 12:00N 06°12' E 093°00'70419.1 220 / 101010.0 2.2 29.426.230.0
2014-Oct-26 23:05N 01°12' E 103°38'5 8.6
2014-Oct-26 22:31N 01°14' E 103°42'4 1.3
2014-Oct-26 19:28N 01°16' E 103°46'0 0.0
2014-Oct-26 18:13N 01°16' E 103°46'0 0.0
2014-Oct-26 17:25N 01°16' E 103°46'0 0.0
2014-Oct-26 16:04N 01°16' E 103°46'0 0.0
2014-Oct-26 15:31N 01°16' E 103°46'0 0.0
2014-Oct-26 14:28N 01°16' E 103°46'0 0.0
2014-Oct-26 12:25N 01°16' E 103°46'0 0.0
2014-Oct-26 11:28N 01°16' E 103°46'0 0.0
2014-Oct-26 10:28N 01°16' E 103°46'0 0.0
2014-Oct-26 09:28N 01°16' E 103°46'0 0.0
2014-Oct-26 07:22N 01°16' E 103°46'0 0.0
2014-Oct-26 06:31N 01°16' E 103°46'0 0.0
2014-Oct-26 04:04N 01°16' E 103°46'0 0.0
2014-Oct-26 02:31N 01°16' E 103°46'0 0.0
2014-Oct-26 01:22N 01°16' E 103°46'0 0.0
2014-Oct-25 23:28N 01°16' E 103°46'0 0.0
2014-Oct-25 22:28N 01°16' E 103°46'0 0.0
2014-Oct-25 21:31N 01°16' E 103°46'0 0.0
2014-Oct-25 20:28N 01°16' E 103°46'0 0.0
2014-Oct-25 19:31N 01°16' E 103°46'0 0.0
2014-Oct-25 18:22N 01°16' E 103°46'0 0.0
2014-Oct-25 17:22N 01°16' E 103°46'0 0.0
2014-Oct-25 16:28N 01°16' E 103°46'0 0.0
2014-Oct-25 14:31N 01°16' E 103°46'0 0.0
2014-Oct-25 13:16N 01°16' E 103°46'0 0.0
2014-Oct-25 12:28N 01°16' E 103°46'0 0.0
2014-Oct-25 11:22N 01°16' E 103°46'0 0.0
2014-Oct-25 10:22N 01°16' E 103°46'0 0.0
2014-Oct-25 09:16N 01°16' E 103°46'0 0.0
2014-Oct-25 08:31N 01°16' E 103°46'0 0.1
2014-Oct-25 07:22N 01°16' E 103°46'0 0.1
2014-Oct-25 06:19N 01°16' E 103°46'0 0.0
2014-Oct-25 05:28N 01°16' E 103°46'0 0.0
2014-Oct-25 04:31N 01°16' E 103°46'0 0.0
2014-Oct-25 03:22N 01°16' E 103°46'0 0.0
2014-Oct-25 02:28N 01°16' E 103°46'0 0.0
2014-Oct-25 01:28N 01°16' E 103°46'0 0.0
2014-Oct-25 00:28N 01°16' E 103°46'0 0.0
2014-Oct-24 23:28N 01°16' E 103°46'0 0.0
2014-Oct-24 22:22N 01°16' E 103°46'0 0.0
2014-Oct-24 21:28N 01°16' E 103°46'0 0.0
2014-Oct-24 20:31N 01°16' E 103°46'0 0.0
2014-Oct-24 19:25N 01°16' E 103°46'1 1.6
2014-Oct-24 18:33N 01°15' E 103°46'8 7.6
2014-Oct-24 17:33N 01°14' E 103°54'1110.9
2014-Oct-24 16:33N 01°16' E 104°04'  
2014-Oct-21 09:23N 22°18' E 114°06'810.1
2014-Oct-21 08:33N 22°21' E 113°57'7 7.4
2014-Oct-21 07:33N 22°27' E 113°53'0 0.5
2014-Oct-21 06:30N 22°28' E 113°53'0 0.0
2014-Oct-21 05:30N 22°28' E 113°53'0 0.0
2014-Oct-21 04:30N 22°28' E 113°53'0 0.0
2014-Oct-21 03:34N 22°28' E 113°53'0 0.0
2014-Oct-21 02:33N 22°28' E 113°53'0 0.0
2014-Oct-21 01:33N 22°28' E 113°53'0 0.0
2014-Oct-21 00:34N 22°28' E 113°53'0 0.0
2014-Oct-20 23:33N 22°28' E 113°53'0 0.0
2014-Oct-20 22:33N 22°28' E 113°53'0 0.0
2014-Oct-20 21:33N 22°28' E 113°53'0 0.0
2014-Oct-20 20:33N 22°28' E 113°53'0 0.0
2014-Oct-20 19:34N 22°28' E 113°53'0 0.0
2014-Oct-20 18:33N 22°28' E 113°53'0 0.0
2014-Oct-20 17:33N 22°28' E 113°53'0 0.0
2014-Oct-20 16:27N 22°28' E 113°53'0 0.0
2014-Oct-20 15:30N 22°28' E 113°53'0 0.0
2014-Oct-20 14:33N 22°28' E 113°53'0 0.0
2014-Oct-20 13:33N 22°28' E 113°53'0 0.2
2014-Oct-20 12:33N 22°27' E 113°53'6 5.9
2014-Oct-20 11:33N 22°22' E 113°55'24 9.9
2014-Oct-20 09:07N 22°09' E 114°17'8 8.8
2014-Oct-20 08:10N 22°11' E 114°26'54 2.4
2014-Oct-19 09:23N 22°16' E 115°24'1719.7
2014-Oct-19 08:33N 22°16' E 115°42'2019.9
2014-Oct-19 07:31N 22°16' E 116°04'6118.7
2014-Oct-19 04:16N 22°51' E 116°58'1217.0
2014-Oct-19 03:33N 22°59' E 117°08'4017.8
2014-Oct-19 01:20N 23°25' E 117°41'1417.9
2014-Oct-19 00:32N 23°34' E 117°52'1817.8
2014-Oct-18 23:33N 23°47' E 118°06'1918.5
2014-Oct-18 22:33N 24°02' E 118°18'1515.0
2014-Oct-18 21:33N 24°16' E 118°14'1313.0
2014-Oct-18 20:33N 24°26' E 118°04'3 2.6
2014-Oct-18 19:32N 24°27' E 118°01'0 0.0
2014-Oct-18 18:14N 24°27' E 118°01'0 0.0
2014-Oct-18 17:14N 24°27' E 118°01'0 0.0
2014-Oct-18 16:32N 24°27' E 118°01'0 0.0
2014-Oct-18 15:20N 24°27' E 118°01'  

Dump ship's entire track history